Location: Aufkirchen
(47.9603°N, 11.3653°E)
Time: 03:31:00
(UTC+01:00)

Courier 1B Rocket - Pass Details

Date: 03 December 2020
Orbit: 920 x 1202 km, 28.2° (Epoch: 23 January)

Event Time Altitude Azimuth Distance (km) Brightness Sun altitude
Rises 06:26:46 0° 238° (WSW) 4,082 7.9 -12.7°
Reaches altitude 10° 06:30:50 10° 219° (SW) 3,127 7.4 -12.1°
Maximum altitude 06:35:20 16° 184° (S) 2,659 7.5 -11.4°
Drops below altitude 10° 06:39:48 10° 148° (SSE) 3,100 8.5 -10.7°
Sets 06:43:49 0° 129° (SE) 4,029 9.9 -10.0°
